Location: Newark
(54.8333°N, 21.6000°E)
Time: 18:08:05
(UTC+00:00)

OTV 5 (USA 277) - Visible Passes

Search period start: 14 October 2019 00:00
Search period end: 24 October 2019 00:00
Orbit: 310 x 324 km, 54.5° (Epoch: 08 October)

Date Brightness Start Highest point End Pass type
(mag) Time Alt. Az. Time Alt. Az. Time Alt. Az.
14 Oct ? 02:08:02 16° E 02:08:02 16° E 02:08:42 10° E visible
14 Oct ? 03:38:55 26° W 03:40:13 60° SSW 03:42:56 10° ESE visible
15 Oct ? 02:22:12 21° E 02:22:12 21° E 02:23:16 10° E visible
15 Oct ? 03:53:05 19° W 03:54:42 38° SSW 03:57:17 10° SE visible
16 Oct ? 02:36:26 26° ESE 02:36:26 26° ESE 02:37:48 10° ESE visible
16 Oct ? 04:07:19 13° W 04:09:06 23° SSW 04:11:22 10° SSE visible
17 Oct ? 02:50:44 27° SE 02:50:44 27° SE 02:52:15 10° ESE visible
17 Oct ? 04:21:57 10° WSW 04:23:24 13° SW 04:24:50 10° S visible
18 Oct ? 03:05:07 22° SSE 03:05:07 22° SSE 03:06:29 10° SE visible
19 Oct ? 03:19:36 14° S 03:19:36 14° S 03:20:20 10° S visible
